Location: Adrasan
(36.3319°N, 30.4314°E)
Time: 07:46:14
(UTC+00:00)

OAO 2 Rocket - Pass Details

Date: 09 December 2023
Orbit: 672 x 742 km, 35.0° (Epoch: 29 February)

Event Time Altitude Azimuth Distance (km) Brightness Sun altitude
Rises 15:17:45 0° 232° (SW) 3,021 8.4 -7.1°
Reaches altitude 10° 15:20:15 10° 224° (SW) 2,117 7.1 -7.6°
Maximum altitude 15:24:47 37° 157° (SSE) 1,073 4.3 -8.4°
Drops below altitude 10° 15:29:25 10° 91° (E) 2,163 5.3 -9.3°
Enters shadow 15:29:32 10° 91° (E) 2,201 5.3 -9.3°
